Date String (YYYY-MM-DD hh:mm:ss) UTC,Instrument flags,Ambient pressure (hPa),Sample flow (lpm),Bypass flow (lpm),Sample temperature (°C),Ambient temperature (°C),ASC tube jacket temperature (°C),LED temperature (°C),Box temperature (°C),Sample RH (%),Span deviation,Mass concentration (μg/m³),Mass concentration (μg/m³),Mass concentration (μg/m³)
DateTimeUTC,F1_M11,P_M11,Q1_M11,Q2_M11,T1_M11,T2_M11,T3_M11,T4_M11,T5_M11,U1_M11,ZSPAN_M11,X0_M11,X2_M11,X1_M11
2023-03-13 10:00:00,,0826.2,5.01,0.00,22.6,22.4,00.0,31.2,24.5,12.3,-001.0,0008.09,0005.02,0004.69
2023-03-13 10:01:00,,0826.2,4.99,0.00,22.6,22.0,00.0,31.2,24.4,12.3,-001.0,0008.47,0005.02,0004.68
2023-03-13 10:02:00,,0826.2,4.99,0.00,22.6,21.7,00.0,31.2,24.4,12.3,-001.1,0008.70,0005.01,0004.66
2023-03-13 10:03:00,,0826.2,4.98,0.00,22.6,21.4,00.0,31.2,24.3,12.3,-001.4,0008.65,0004.98,0004.64
2023-03-13 10:04:00,,0826.2,4.97,0.00,22.5,21.2,00.0,31.2,24.3,12.3,-000.8,0008.46,0004.95,0004.63
2023-03-13 10:05:00,,0826.2,5.03,0.00,22.5,21.1,00.0,31.2,24.3,12.3,-001.4,0008.24,0004.91,0004.62
2023-03-13 10:06:00,,0826.1,5.03,0.00,22.5,20.9,00.0,31.2,24.2,12.3,-001.6,0008.10,0004.92,0004.61
2023-03-13 10:07:00,,0826.1,5.00,0.00,22.5,20.8,00.0,31.2,24.2,12.3,-001.7,0008.12,0004.91,0004.60
2023-03-13 10:08:00,,0826.0,5.01,0.00,22.4,20.7,00.0,31.2,24.2,12.3,-000.0,0008.07,0004.89,0004.59
2023-03-13 10:09:00,,0826.0,5.00,0.00,22.4,20.7,00.0,31.2,24.1,12.3,0000.0,0008.06,0004.88,0004.58
2023-03-13 10:10:00,,0826.0,5.00,0.00,22.4,20.7,00.0,31.2,24.1,12.3,0000.0,0008.08,0004.89,0004.58
2023-03-13 10:11:00,,0826.0,5.01,0.00,22.4,20.6,00.0,31.2,24.1,12.3,0000.0,0008.09,0004.90,0004.59
2023-03-13 10:12:00,,0826.0,4.99,0.00,22.3,20.6,00.0,31.1,24.1,12.4,0000.0,0007.65,0004.87,0004.59
2023-03-13 10:13:00,,0826.0,5.01,0.00,22.3,20.6,00.0,31.1,24.1,12.4,0000.0,0007.54,0004.85,0004.59
2023-03-13 10:14:00,,0826.0,5.01,0.00,22.3,21.2,00.0,31.1,24.2,12.4,0000.0,0007.74,0004.84,0004.59
2023-03-13 10:15:00,,0826.0,4.99,0.00,22.5,22.4,00.0,31.1,24.4,12.3,0000.0,0007.67,0004.82,0004.59
2023-03-13 10:16:00,,0826.0,5.01,0.00,22.6,23.1,00.0,31.1,24.6,12.2,0000.0,0007.52,0004.85,0004.59
2023-03-13 10:17:00,,0826.0,5.01,0.00,22.6,22.8,00.0,31.2,24.6,12.1,0000.0,0007.59,0004.87,0004.61
2023-03-13 10:18:00,,0826.0,5.01,0.00,22.6,22.3,00.0,31.2,24.5,12.1,0000.0,0007.56,0004.87,0004.62
2023-03-13 10:19:00,,0825.9,5.00,0.00,22.6,21.9,00.0,31.2,24.4,12.1,0000.0,0007.60,0004.87,0004.61
2023-03-13 10:20:00,,0826.0,4.99,0.00,22.6,21.6,00.0,31.2,24.4,12.0,0000.0,0007.60,0004.87,0004.60
2023-03-13 10:21:00,,0825.9,4.98,0.00,22.6,21.4,00.0,31.3,24.3,12.0,0000.0,0007.64,0004.87,0004.59
2023-03-13 10:22:00,,0825.9,5.01,0.00,22.6,21.2,00.0,31.3,24.3,12.0,0000.0,0007.61,0004.85,0004.58
2023-03-13 10:23:00,,0826.0,4.99,0.00,22.5,21.1,00.0,31.3,24.3,12.0,0000.0,0007.64,0004.85,0004.57
2023-03-13 10:24:00,,0826.0,5.01,0.00,22.5,21.0,00.0,31.2,24.2,12.0,0000.0,0007.57,0004.86,0004.56
2023-03-13 10:25:00,,0825.9,5.01,0.00,22.5,20.9,00.0,31.2,24.2,12.0,0000.0,0007.39,0004.86,0004.55
2023-03-13 10:26:00,,0825.9,4.99,0.00,22.5,20.8,00.0,31.2,24.1,12.0,0000.0,0007.41,0004.86,0004.54
2023-03-13 10:27:00,,0825.9,5.01,0.00,22.4,20.7,00.0,31.2,24.1,12.0,0000.0,0007.31,0004.82,0004.52
2023-03-13 10:28:00,,0825.9,5.00,0.00,22.4,20.6,00.0,31.2,24.1,12.0,0000.0,0007.17,0004.77,0004.49
2023-03-13 10:29:00,,0825.9,5.00,0.00,22.4,20.5,00.0,31.2,24.1,12.0,0000.0,0007.15,0004.75,0004.46
2023-03-13 10:30:00,,0825.9,5.00,0.00,22.3,20.5,00.0,31.2,24.0,12.0,0000.0,0007.55,0004.71,0004.44
2023-03-13 10:31:00,,0825.9,5.01,0.00,22.3,21.1,00.0,31.1,24.1,12.0,0000.0,0007.61,0004.70,0004.43
2023-03-13 10:32:00,,0826.0,4.99,0.00,22.4,22.1,00.0,31.1,24.4,12.0,0000.0,0007.60,0004.69,0004.44
2023-03-13 10:33:00,,0825.9,5.02,0.00,22.6,22.9,00.0,31.2,24.6,12.0,0000.0,0008.20,0004.72,0004.44
2023-03-13 10:34:00,,0825.9,4.98,0.00,22.6,22.7,00.0,31.2,24.5,11.9,0000.0,0008.34,0004.71,0004.44
2023-03-13 10:35:00,,0825.9,5.00,0.00,22.6,22.2,00.0,31.2,24.5,11.9,0000.0,0008.35,0004.70,0004.44
2023-03-13 10:36:00,,0825.9,5.01,0.00,22.6,21.9,00.0,31.2,24.4,11.9,0000.0,0008.36,0004.71,0004.44
2023-03-13 10:37:00,,0825.9,4.99,0.00,22.6,21.6,00.0,31.2,24.4,11.9,0000.0,0008.44,0004.73,0004.43
2023-03-13 10:38:00,,0825.8,5.00,0.00,22.6,21.4,00.0,31.3,24.3,11.9,0000.0,0008.49,0004.75,0004.45
2023-03-13 10:39:00,,0825.9,5.01,0.00,22.6,21.2,00.0,31.3,24.3,12.0,0000.0,0008.52,0004.78,0004.46
2023-03-13 10:40:00,,0825.8,4.99,0.00,22.5,21.0,00.0,31.2,24.2,12.0,0000.0,0008.57,0004.82,0004.48
2023-03-13 10:41:00,,0825.8,5.01,0.00,22.5,20.9,00.0,31.2,24.2,12.1,0000.0,0008.55,0004.87,0004.51
2023-03-13 10:42:00,,0825.9,5.00,0.00,22.5,20.8,00.0,31.2,24.2,12.3,0000.0,0008.86,0004.90,0004.52
2023-03-13 10:43:00,,0825.9,4.99,0.00,22.4,20.7,00.0,31.2,24.1,12.4,0000.0,0008.82,0004.90,0004.53
2023-03-13 10:44:00,,0825.9,5.00,0.00,22.4,20.6,00.0,31.2,24.1,12.4,0000.0,0008.36,0004.89,0004.54
2023-03-13 10:45:00,,0825.8,5.00,0.00,22.4,20.6,00.0,31.2,24.1,12.5,0000.0,0008.16,0004.92,0004.55
2023-03-13 10:46:00,,0825.7,5.00,0.00,22.4,20.5,00.0,31.2,24.1,12.5,0000.0,0008.15,0004.95,0004.59
2023-03-13 10:47:00,,0825.8,5.00,0.00,22.3,20.7,00.0,31.2,24.1,12.6,0000.0,0008.17,0004.97,0004.61
2023-03-13 10:48:00,,0825.9,5.00,0.00,22.4,21.6,00.0,31.1,24.3,12.5,0000.0,0008.08,0004.94,0004.61
2023-03-13 10:49:00,,0826.0,4.99,0.00,22.5,22.7,00.0,31.1,24.5,12.4,0000.0,0008.69,0004.94,0004.62
2023-03-13 10:50:00,,0825.9,5.00,0.00,22.6,23.1,00.0,31.2,24.6,12.4,0000.0,0008.88,0004.95,0004.63
2023-03-13 10:51:00,,0825.9,5.00,0.00,22.7,22.6,00.0,31.2,24.5,12.3,0000.0,0008.91,0004.94,0004.64
2023-03-13 10:52:00,,0825.9,5.01,0.00,22.6,22.2,00.0,31.2,24.5,12.4,0000.0,0008.95,0004.97,0004.65
2023-03-13 10:53:00,,0825.9,5.01,0.00,22.6,21.9,00.0,31.3,24.4,12.4,0000.0,0008.45,0004.97,0004.66
2023-03-13 10:54:00,,0825.8,5.00,0.00,22.6,21.6,00.0,31.3,24.4,12.4,0000.0,0008.38,0004.98,0004.67
2023-03-13 10:55:00,,0826.1,5.00,0.00,22.6,21.4,00.0,31.3,24.3,12.4,-000.4,0008.43,0004.99,0004.66
2023-03-13 10:56:00,,0826.1,4.99,0.00,22.6,21.2,00.0,31.3,24.3,12.4,-001.0,0008.38,0004.97,0004.66
2023-03-13 10:57:00,,0826.1,5.01,0.00,22.6,21.0,00.0,31.3,24.3,12.4,-001.0,0008.34,0004.96,0004.65
2023-03-13 10:58:00,,0825.8,5.00,0.00,22.5,20.9,00.0,31.3,24.2,12.4,-000.3,0008.63,0004.96,0004.64
2023-03-13 10:59:00,,0826.2,5.00,0.00,22.5,20.8,00.0,31.2,24.2,12.4,0000.0,0009.16,0005.00,0004.65
